Miscellaneous Local Product
Issued by NWS North Platte, NE

Home | Current Version | Previous Version | Graphics & Text | Print | Product List | Glossary On
Versions: 1 2 3 4 5 6 7 8 9 10 11 12 13 14 15 16 17 18 19 20 21 22 23 24 25 26 27 28 29 30 31 32 33 34 35 36 37 38 39 40 41 42 43 44 45 46 47 48 49 50
000
AXUS43 KLBF 281210
MISLBF


WESTERN AND NORTH CENTRAL NEBRASKA HOURLY WEATHER ROUNDUP
NATIONAL WEATHER SERVICE NORTH PLATTE NE
700 AM CDT THU JUL 28 2016

NOTE: "FAIR" INDICATES FEW OR NO CLOUDS BELOW 12,000 FEET WITH NO
SIGNIFICANT WEATHER AND/OR OBSTRUCTIONS TO VISIBILITY.

NOTE: STATIONS NOT REPORTING VARIABLES SUCH AS SKY/WEATHER OR
PRESSURE ARE PROVIDED BY RAWS AND APRS NETWORKS AND ARE NOT UNDER
NATIONAL WEATHER SERVICE QUALITY CONTROL.

...OBSERVATIONS IN AND NEAR THE EASTERN PANHANDLE OF NEBRASKA...

CITY           SKY/WX    TMP DP  RH WIND       PRES   REMARKS
PINE RIDGE     LGT RAIN  62  60  93 S25G38    30.07F
CHADRON        CLOUDY    63  56  78 SE22      30.08F
ALLIANCE       TSTM      59  57  93 NE22G28   30.19F
SIDNEY         CLOUDY    59  57  93 CALM      30.16R
CRESCENT LAKE    N/A     60  57  89 NE9         N/A
$$

...OBSERVATIONS IN NORTHERN NEBRASKA AND FAR SOUTHERN SOUTH DAKOTA...

CITY           SKY/WX    TMP DP  RH WIND       PRES   REMARKS
WINNER         FAIR      60  57  89 CALM      30.12R
VALENTINE      CLOUDY    57  55  93 MISG      30.15R
THEDFORD       CLOUDY    58  57  96 N3        30.15R
AINSWORTH      CLOUDY    58  57  98 CALM      30.13R
O`NEILL        MOCLDY    63  62  96 CALM      30.12R
ORD            PTCLDY    61  58  90 N3        30.09R
BROKEN BOW     PTCLDY    59  58  96 N7        30.11R
VALENTINE NWR    N/A     58  57  97 CALM        N/A
BUTTE            N/A     64  62  92 NE3         N/A
HALSEY           N/A     57  56  97 CALM        N/A
EWING            N/A     62  61  98 CALM        N/A
$$

...OBSERVATIONS IN SOUTHWEST NEBRASKA AND FAR NORTHEAST COLORADO...

CITY           SKY/WX    TMP DP  RH WIND       PRES   REMARKS
WRAY           PTSUNNY   64  54  68 S9        30.10S
HOLYOKE        FAIR      59  55  88 CALM      30.12S
IMPERIAL       CLOUDY    63  61  93 CALM      30.11R
OGALLALA       CLOUDY    63  59  89 E8        30.11S
NORTH PLATTE   CLOUDY    61  59  93 CALM      30.12R
MCCOOK         MOCLDY    66  64  93 E10       30.07S FOG
LEXINGTON      MOCLDY    63  61  92 CALM      30.11S
STAPLETON        N/A     59  58  96 CALM        N/A
GOTHENBURG       N/A     64  57  79 CALM        N/A
CALLAWAY         N/A     59  58  96 CALM        N/A
$$

...OBSERVATIONS IN CENTRAL LINCOLN COUNTY AREA...

CITY           SKY/WX    TMP DP  RH WIND       PRES   REMARKS
N.P. AIRPORT   CLOUDY    61  59  93 CALM      30.12R
N.P. DOWNTOWN    N/A     63  60  88 NE3         N/A
N.P. SOUTHEAST   N/A     62  59  89 CALM        N/A
N.P. HILLCREST   N/A     62  59  91 E9          N/A
$$

...SOME OBSERVATIONS FROM AROUND THE REGION...

CITY           SKY/WX    TMP DP  RH WIND       PRES   REMARKS
DENVER         PTCLDY    62  57  83 SW7       30.15F
LARAMIE        CLOUDY    51  49  92 W9        30.26R
CHEYENNE       CLEAR     58  55  90 S7        30.19F
SCOTTSBLUFF    CLOUDY    62  54  74 NE21G28   30.20R
RAPID CITY     PTCLDY    59  57  93 W8        30.08R
BISMARCK       CLOUDY    63  59  87 E7        30.15R
PIERRE         CLOUDY    62  58  86 E6        30.10R
SIOUX FALLS    PTCLDY    63  58  83 CALM      30.06R
OMAHA          PTCLDY    70  66  87 N5        30.02R
GRAND ISLAND   PTCLDY    62  60  93 NW5       30.09R
KANSAS CITY    CLOUDY    72  71  97 N5        29.97R
WICHITA        CLOUDY    75  70  84 W6        30.01R
OKLAHOMA CITY  PTCLDY    72  71  97 CALM      30.00R
DALLAS         CLOUDY    80  72  76 S5        29.97R
AMARILLO       CLEAR     61  58  90 N10       30.17R
DODGE CITY     CLOUDY    65  60  84 NE6       30.10R
HAYS           MOCLDY    66  57  72 CALM      30.08R
GOODLAND       MOCLDY    68  52  56 SE17      30.09F
$$




USA.gov is the U.S. government's official web portal to all federal, state and local government web resources and services.